Location: ???? ?????????
(31.1304°N, 31.7111°E)
Time: 11:43:17
(UTC+00:00)

Cosmos 1315 Rocket - Pass Details

Date: 29 October 2020
Orbit: 530 x 567 km, 81.2° (Epoch: 26 November)

Event Time Altitude Azimuth Distance (km) Brightness Sun altitude
Rises 16:00:16 0° 178° (S) 2,663 6.4 -12.0°
Reaches altitude 10° 16:02:25 10° 175° (S) 1,781 5.5 -12.4°
Maximum altitude 16:06:16 59° 96° (E) 626 2.8 -13.3°
Drops below altitude 10° 16:10:11 10° 16° (NNE) 1,811 5.2 -14.1°
Sets 16:12:23 0° 13° (NNE) 2,714 6.2 -14.6°
